CDT,Max TemperatureF,Mean TemperatureF,Min TemperatureF,Max Dew PointF,MeanDew PointF,Min DewpointF,Max Humidity, Mean Humidity, Min Humidity, Max Sea Level PressureIn, Mean Sea Level PressureIn, Min Sea Level PressureIn, Max VisibilityMiles, Mean VisibilityMiles, Min VisibilityMiles, Max Wind SpeedMPH, Mean Wind SpeedMPH, Max Gust SpeedMPH,PrecipitationIn, CloudCover, Events, WindDirDegrees
2013-10-1,82,74,66,68,66,64,100,74,58,30.05,30.01,29.98,10,8,4,13,6,,0.00,4,,162
2013-10-2,82,75,68,70,67,64,94,77,54,30.08,30.03,29.97,10,10,7,15,7,,0.00,5,,167
2013-10-3,82,76,69,68,67,66,88,73,58,30.00,29.95,29.91,10,10,10,17,12,28,0.00,3,,173
2013-10-4,82,76,71,68,67,64,88,69,54,29.99,29.95,29.91,10,10,10,17,12,18,0.00,4,,173
2013-10-5,73,60,46,70,55,45,100,94,87,30.07,30.02,29.93,10,5,0,17,11,14,0.00,7,Rain-Thunderstorm,321
2013-10-6,60,51,42,45,42,39,93,64,51,30.04,30.02,29.99,10,10,10,17,8,17,0.00,2,,282
2013-10-7,69,56,44,50,44,41,93,61,40,30.18,30.15,30.11,10,10,10,12,7,,0.00,0,,360
2013-10-8,71,58,44,52,46,43,100,62,38,30.19,30.15,30.09,10,10,10,10,5,,0.00,0,,129
2013-10-9,75,60,46,52,47,45,93,60,34,30.17,30.11,30.08,10,10,10,9,3,,0.00,0,,171
2013-10-10,77,62,48,57,53,46,93,67,44,30.14,30.07,29.99,10,10,10,12,7,,0.00,1,,154
2013-10-11,75,67,59,64,61,55,88,77,65,30.00,29.95,29.91,10,10,10,17,8,29,0.00,4,,149
2013-10-12,73,68,62,64,62,59,94,84,73,30.17,30.10,29.98,10,10,10,13,7,23,0.00,6,,57
2013-10-13,73,66,60,55,51,46,82,61,49,30.35,30.30,30.26,10,10,10,17,11,16,0.00,7,,76
2013-10-14,68,62,57,61,56,46,94,78,67,30.23,30.14,30.04,10,8,4,14,10,14,0.00,8,Rain,122
2013-10-15,66,60,53,64,58,48,100,93,82,30.08,30.01,29.94,10,7,2,13,7,18,0.00,8,Rain,304
2013-10-16,60,52,44,45,42,39,87,68,52,30.15,30.08,30.02,10,10,10,14,8,,0.00,3,,341
2013-10-17,62,52,42,46,44,43,100,77,48,30.10,30.06,30.01,10,7,0,10,4,,0.00,3,Fog,244
2013-10-18,62,52,42,52,47,41,100,83,59,30.09,30.05,29.99,10,8,0,13,6,,0.00,5,Fog-Rain,72
2013-10-19,57,47,37,37,36,34,93,71,44,30.17,30.11,30.06,10,10,8,9,7,,0.00,3,,273
2013-10-20,66,52,39,45,39,36,93,56,32,30.05,29.99,29.92,10,10,10,17,7,23,0.00,1,,175
2013-10-21,57,50,42,48,45,41,94,84,72,30.12,30.08,30.02,10,10,6,9,6,,0.00,6,Rain,26
2013-10-22,64,50,35,45,41,36,100,65,48,30.10,30.03,29.98,10,10,6,15,6,23,0.00,2,Fog,265
2013-10-23,60,50,39,43,36,34,87,60,39,30.20,30.13,30.04,10,10,10,8,2,,0.00,1,,97
2013-10-24,53,48,42,41,35,28,93,62,44,30.38,30.31,30.18,10,10,10,15,8,18,0.00,0,,11
2013-10-25,57,45,33,32,28,23,81,51,27,30.51,30.42,30.30,10,10,10,14,6,17,0.00,1,,137
2013-10-26,64,54,44,54,48,37,88,73,63,30.21,30.17,30.13,10,10,8,17,7,17,0.00,7,,228
2013-10-27,66,56,46,50,43,39,82,63,37,30.12,30.07,30.02,10,10,10,12,5,,0.00,3,,281
2013-10-28,64,60,55,54,52,50,94,76,63,30.20,30.16,30.12,10,9,7,9,5,13,0.00,7,,151
2013-10-29,69,64,60,64,61,57,94,86,78,30.13,30.09,30.03,10,9,1,16,13,26,0.00,8,Rain,181
2013-10-30,68,65,62,64,62,46,100,90,49,30.09,30.01,29.90,10,6,2,17,8,16,0.00,8,Rain,168
2013-10-31,71,62,51,64,57,48,100,83,46,29.76,29.65,29.53,10,9,3,24,9,38,0.00,6,Rain,244